TimeEST,TemperatureF,Dew PointF,Humidity,Sea Level PressureIn,VisibilityMPH,Wind Direction,Wind SpeedMPH,Gust SpeedMPH,PrecipitationIn,Events,Conditions,WindDirDegrees,DateUTC
12:15 AM,32.0,5.0,32,30.26,10.0,North,3.5,-,N/A,,Clear,350,2013-01-23 05:15:00
12:55 AM,32.0,8.6,38,30.27,10.0,Calm,Calm,-,N/A,,Clear,0,2013-01-23 05:55:00
1:15 AM,30.2,10.4,44,30.27,10.0,Calm,Calm,-,N/A,,Clear,0,2013-01-23 06:15:00
1:35 AM,30.2,14.0,51,30.27,10.0,Calm,Calm,-,N/A,,Clear,0,2013-01-23 06:35:00
1:55 AM,28.4,14.0,55,30.28,10.0,Calm,Calm,-,N/A,,Clear,0,2013-01-23 06:55:00
2:15 AM,28.4,14.0,55,30.28,10.0,Calm,Calm,-,N/A,,Clear,0,2013-01-23 07:15:00
2:35 AM,28.4,14.0,55,30.29,10.0,Calm,Calm,-,N/A,,Clear,0,2013-01-23 07:35:00
2:55 AM,28.4,17.6,64,30.29,10.0,Calm,Calm,-,N/A,,Clear,0,2013-01-23 07:55:00
3:15 AM,28.4,12.2,51,30.28,10.0,Calm,Calm,-,N/A,,Clear,0,2013-01-23 08:15:00
3:35 AM,28.4,14.0,55,30.29,10.0,Calm,Calm,-,N/A,,Clear,0,2013-01-23 08:35:00
3:55 AM,28.4,17.6,64,30.28,10.0,Calm,Calm,-,N/A,,Clear,0,2013-01-23 08:55:00
4:15 AM,28.4,12.2,51,30.29,10.0,Calm,Calm,-,N/A,,Clear,0,2013-01-23 09:15:00
4:35 AM,28.4,14.0,55,30.29,10.0,Calm,Calm,-,N/A,,Clear,0,2013-01-23 09:35:00
5:15 AM,26.6,14.0,59,30.30,10.0,Calm,Calm,-,N/A,,Clear,0,2013-01-23 10:15:00
5:35 AM,26.6,14.0,59,30.30,10.0,Calm,Calm,-,N/A,,Clear,0,2013-01-23 10:35:00
6:15 AM,26.6,10.4,51,30.31,10.0,Calm,Calm,-,N/A,,Clear,0,2013-01-23 11:15:00
6:35 AM,26.6,12.2,55,30.32,10.0,Calm,Calm,-,N/A,,Clear,0,2013-01-23 11:35:00
7:35 AM,26.6,12.2,55,30.33,10.0,SSE,3.5,-,N/A,,Clear,160,2013-01-23 12:35:00
8:15 AM,32.0,8.6,38,30.33,10.0,South,4.6,-,N/A,,Clear,170,2013-01-23 13:15:00
8:35 AM,30.2,14.0,51,30.34,10.0,Calm,Calm,-,N/A,,Clear,0,2013-01-23 13:35:00
9:15 AM,32.0,12.2,44,30.35,10.0,SSE,9.2,-,N/A,,Clear,150,2013-01-23 14:15:00
9:35 AM,32.0,10.4,41,30.35,10.0,SSE,8.1,-,N/A,,Clear,160,2013-01-23 14:35:00
10:15 AM,35.6,12.2,38,30.35,10.0,SE,3.5,-,N/A,,Clear,130,2013-01-23 15:15:00
10:35 AM,37.4,12.2,36,30.35,10.0,SE,4.6,-,N/A,,Clear,130,2013-01-23 15:35:00
11:15 AM,41.0,12.2,31,30.34,10.0,Calm,Calm,-,N/A,,Clear,0,2013-01-23 16:15:00
11:35 AM,41.0,12.2,31,30.33,10.0,Calm,Calm,-,N/A,,Clear,0,2013-01-23 16:35:00
12:15 PM,42.8,14.0,31,30.30,10.0,ESE,4.6,-,N/A,,Clear,110,2013-01-23 17:15:00
12:35 PM,42.8,14.0,31,30.29,10.0,SSW,6.9,-,N/A,,Clear,200,2013-01-23 17:35:00
1:15 PM,44.6,17.6,34,30.26,10.0,SW,6.9,-,N/A,,Clear,230,2013-01-23 18:15:00
1:35 PM,44.6,15.8,31,30.24,10.0,South,6.9,-,N/A,,Clear,190,2013-01-23 18:35:00
2:15 PM,46.4,17.6,32,30.23,10.0,West,6.9,-,N/A,,Clear,270,2013-01-23 19:15:00
2:35 PM,48.2,19.4,32,30.22,10.0,WSW,8.1,-,N/A,,Clear,250,2013-01-23 19:35:00
2:55 PM,46.4,19.4,34,30.22,10.0,West,5.8,-,N/A,,Clear,260,2013-01-23 19:55:00
3:15 PM,48.2,21.2,34,30.22,10.0,SW,8.1,-,N/A,,Clear,230,2013-01-23 20:15:00
3:35 PM,48.2,21.2,34,30.21,10.0,SW,3.5,-,N/A,,Clear,220,2013-01-23 20:35:00
3:55 PM,48.2,21.2,34,30.20,10.0,South,3.5,-,N/A,,Clear,190,2013-01-23 20:55:00
4:15 PM,48.2,21.2,34,30.19,10.0,SW,3.5,-,N/A,,Clear,220,2013-01-23 21:15:00
4:35 PM,46.4,23.0,40,30.19,10.0,South,4.6,-,N/A,,Clear,190,2013-01-23 21:35:00
4:55 PM,46.4,23.0,40,30.19,10.0,South,3.5,-,N/A,,Clear,170,2013-01-23 21:55:00
5:15 PM,46.4,24.8,43,30.18,10.0,South,4.6,-,N/A,,Clear,170,2013-01-23 22:15:00
5:35 PM,44.6,24.8,46,30.18,10.0,South,3.5,-,N/A,,Clear,170,2013-01-23 22:35:00
5:55 PM,42.8,26.6,53,30.18,10.0,SSE,3.5,-,N/A,,Clear,160,2013-01-23 22:55:00
6:15 PM,41.0,26.6,57,30.17,10.0,South,3.5,-,N/A,,Clear,170,2013-01-23 23:15:00
6:35 PM,41.0,26.6,57,30.17,10.0,SSE,4.6,-,N/A,,Clear,160,2013-01-23 23:35:00
6:55 PM,42.8,26.6,53,30.17,10.0,South,4.6,-,N/A,,Clear,170,2013-01-23 23:55:00
7:15 PM,41.0,26.6,57,30.16,10.0,South,5.8,-,N/A,,Clear,180,2013-01-24 00:15:00
7:35 PM,41.0,26.6,57,30.15,10.0,South,4.6,-,N/A,,Clear,170,2013-01-24 00:35:00
7:55 PM,41.0,26.6,57,30.15,10.0,South,3.5,-,N/A,,Clear,190,2013-01-24 00:55:00
8:15 PM,37.4,28.4,70,30.15,10.0,South,3.5,-,N/A,,Clear,190,2013-01-24 01:15:00
8:55 PM,39.2,28.4,65,30.14,10.0,SSW,3.5,-,N/A,,Clear,200,2013-01-24 01:55:00
9:15 PM,37.4,28.4,70,30.14,10.0,Calm,Calm,-,N/A,,Clear,0,2013-01-24 02:15:00
9:55 PM,37.4,30.2,75,30.12,10.0,SSW,4.6,-,N/A,,Clear,210,2013-01-24 02:55:00
10:15 PM,39.2,30.2,70,30.11,10.0,SSW,5.8,-,N/A,,Clear,210,2013-01-24 03:15:00
10:55 PM,37.4,30.2,75,30.11,10.0,SSW,4.6,-,N/A,,Clear,210,2013-01-24 03:55:00
11:15 PM,37.4,30.2,75,30.09,10.0,SSW,5.8,-,N/A,,Clear,200,2013-01-24 04:15:00
11:35 PM,37.4,30.2,75,30.08,10.0,SW,3.5,-,N/A,,Clear,220,2013-01-24 04:35:00
11:55 PM,37.4,30.2,75,30.08,10.0,SSW,3.5,-,N/A,,Clear,210,2013-01-24 04:55:00